Simultaneous Nadir Overpasses (SNOs) Predictions

Prediction of SNOs between METOP-B and TERRA Satellite Orbit:

Table of predicted SNOs for the next 14.0 days since TLE Epoch: 2/14/2015
Index Date (METOP-B) Time (METOP-B) Lat,Lon (METOP-B) SZA (METOP-B ) Date (TERRA) Time (TERRA) Lat,Lon (TERRA) SZA (TERRA ) Distance(km) Time Diff (sec)
1 02/14/2015 08:25:01 -81.27, -80.21 83.45 02/14/2015 08:26:10 -81.26, -80.19 83.43 0.82 69
2 02/14/2015 09:15:40 81.28, 88.01 96.64 02/14/2015 09:15:35 81.29, 87.90 96.63 1.90 5
3 02/17/2015 03:59:22 -81.27, -13.56 84.39 02/17/2015 04:00:24 -81.27, -13.59 84.37 0.62 62
4 02/17/2015 04:50:02 81.28, 154.25 95.66 02/17/2015 04:49:50 81.27, 154.09 95.63 2.74 12
5 02/19/2015 23:33:44 -81.27, 52.65 85.39 02/19/2015 23:34:38 -81.27, 52.84 85.35 3.05 54
6 02/20/2015 00:24:24 81.28,-139.57 94.65 02/20/2015 00:24:04 81.27,-139.51 94.64 1.23 20
7 02/22/2015 19:08:03 -81.28, 119.59 86.34 02/22/2015 19:08:50 -81.28, 119.46 86.33 2.14 47
8 02/22/2015 19:58:44 81.28, -73.05 93.66 02/22/2015 19:58:16 81.28, -72.90 93.66 2.57 28
9 02/25/2015 14:42:24 -81.28,-173.93 87.35 02/25/2015 14:43:03 -81.28,-174.09 87.35 2.75 39




NCC Satellite Simultaneous Nadir Overpasses (SNOs) Prediction Service
